OMD193 KIAH-KMZJ

Flight info

Callsign OMD193
Flight time 2h 14m
Altitude 38000
Route PITZZ5 CRGER JCT J86 ELP J2 TUS
Aircraft A21N/M-SDE2E3FGHIRWXY/LB1

Departure

Time 2026-05-07 17:38
Airport George Bush Intercontinental Airport (KIAH)

Arrival

Time 2026-05-07 19:52
Airport Pinal Airpark (KMZJ)
Time Latitude Longitude Altitude Speed Heading
2026-05-07 16:29 29.96058 -95.33578 112 ft 0 kts 62°
2026-05-07 17:12 29.96059 -95.33576 103 ft 1 kts 59°
2026-05-07 17:12 29.96068 -95.33576 113 ft 1 kts 345°
2026-05-07 17:13 29.96078 -95.33598 113 ft 5 kts 283°
2026-05-07 17:13 29.96065 -95.33648 113 ft 8 kts 241°
2026-05-07 17:13 29.96052 -95.33675 113 ft 0 kts 241°
2026-05-07 17:29 29.96052 -95.33677 113 ft 1 kts 241°
2026-05-07 17:29 29.96043 -95.33694 113 ft 3 kts 241°
2026-05-07 17:29 29.96033 -95.33734 112 ft 8 kts 277°
2026-05-07 17:29 29.96083 -95.33788 113 ft 12 kts 331°
2026-05-07 17:30 29.96165 -95.33840 113 ft 15 kts 331°
2026-05-07 17:30 29.96230 -95.33880 112 ft 17 kts 332°
2026-05-07 17:30 29.96312 -95.33928 112 ft 12 kts 333°
2026-05-07 17:30 29.96361 -95.33957 112 ft 7 kts 332°
2026-05-07 17:31 29.96415 -95.33991 112 ft 10 kts 332°
2026-05-07 17:31 29.96429 -95.34068 112 ft 10 kts 240°
2026-05-07 17:31 29.96426 -95.34119 112 ft 8 kts 309°
2026-05-07 17:31 29.96481 -95.34161 111 ft 11 kts 330°
2026-05-07 17:32 29.96558 -95.34211 112 ft 14 kts 332°
2026-05-07 17:32 29.96655 -95.34268 112 ft 17 kts 333°
2026-05-07 17:32 29.96771 -95.34338 112 ft 20 kts 331°
2026-05-07 17:32 29.96903 -95.34419 113 ft 23 kts 332°
2026-05-07 17:33 29.97050 -95.34510 112 ft 25 kts 333°
2026-05-07 17:33 29.97192 -95.34594 112 ft 16 kts 332°
2026-05-07 17:33 29.97298 -95.34660 113 ft 19 kts 332°
2026-05-07 17:33 29.97420 -95.34735 112 ft 21 kts 332°
2026-05-07 17:34 29.97558 -95.34819 112 ft 24 kts 332°
2026-05-07 17:34 29.97703 -95.34908 113 ft 23 kts 332°
2026-05-07 17:34 29.97780 -95.34955 113 ft 10 kts 332°
2026-05-07 17:34 29.97854 -95.35000 113 ft 13 kts 332°
2026-05-07 17:35 29.97946 -95.35056 113 ft 17 kts 332°
2026-05-07 17:35 29.98056 -95.35124 113 ft 19 kts 332°
2026-05-07 17:35 29.98183 -95.35203 113 ft 22 kts 332°
2026-05-07 17:35 29.98325 -95.35288 113 ft 24 kts 333°
2026-05-07 17:36 29.98479 -95.35383 112 ft 26 kts 331°
2026-05-07 17:36 29.98609 -95.35462 112 ft 13 kts 333°
2026-05-07 17:36 29.98665 -95.35495 111 ft 10 kts 333°
2026-05-07 17:36 29.98735 -95.35537 112 ft 13 kts 333°
2026-05-07 17:37 29.98765 -95.35632 112 ft 16 kts 241°
2026-05-07 17:37 29.98683 -95.35720 113 ft 19 kts 162°
2026-05-07 17:37 29.98549 -95.35642 113 ft 36 kts 152°
2026-05-07 17:37 29.97980 -95.35287 114 ft 148 kts 153°
2026-05-07 17:38 29.96847 -95.34607 827 ft 186 kts 150°
2026-05-07 17:38 29.95666 -95.34359 2655 ft 171 kts 184°
2026-05-07 17:38 29.94517 -95.34736 3527 ft 177 kts 203°
2026-05-07 17:38 29.93377 -95.35567 3963 ft 216 kts 225°
2026-05-07 17:39 29.92374 -95.37067 4411 ft 253 kts 234°
2026-05-07 17:39 29.91281 -95.38779 4872 ft 272 kts 234°
2026-05-07 17:39 29.90153 -95.40528 5006 ft 272 kts 234°
2026-05-07 17:39 29.89031 -95.42256 5033 ft 272 kts 234°
2026-05-07 17:40 29.88000 -95.44068 5747 ft 272 kts 240°
2026-05-07 17:40 29.87043 -95.45969 6895 ft 275 kts 241°
2026-05-07 17:40 29.86082 -95.47876 8110 ft 274 kts 241°
2026-05-07 17:40 29.85123 -95.49787 9257 ft 277 kts 242°
2026-05-07 17:41 29.84196 -95.51743 10313 ft 282 kts 245°
2026-05-07 17:41 29.83484 -95.53947 10793 ft 307 kts 257°
2026-05-07 17:41 29.83304 -95.56491 11142 ft 333 kts 273°
2026-05-07 17:41 29.83826 -95.59196 11462 ft 361 kts 289°
2026-05-07 17:42 29.85025 -95.61848 11812 ft 384 kts 298°
2026-05-07 17:42 29.86416 -95.64542 12360 ft 394 kts 298°
2026-05-07 17:42 29.87795 -95.67245 13116 ft 399 kts 297°
2026-05-07 17:42 29.89196 -95.70034 13956 ft 403 kts 296°
2026-05-07 17:43 29.90583 -95.72855 14690 ft 406 kts 295°
2026-05-07 17:43 29.91988 -95.75699 15543 ft 410 kts 295°
2026-05-07 17:43 29.93414 -95.78571 16369 ft 414 kts 295°
2026-05-07 17:43 29.94844 -95.81464 17136 ft 417 kts 295°
2026-05-07 17:44 29.96290 -95.84395 17893 ft 421 kts 294°
2026-05-07 17:44 29.97745 -95.87350 18590 ft 425 kts 294°
2026-05-07 17:44 29.99205 -95.90334 19249 ft 428 kts 294°
2026-05-07 17:44 30.00647 -95.93298 19937 ft 431 kts 294°
2026-05-07 17:45 30.02122 -95.96319 20579 ft 434 kts 294°
2026-05-07 17:45 30.03611 -95.99358 21313 ft 437 kts 294°
2026-05-07 17:45 30.05116 -96.02433 22098 ft 440 kts 294°
2026-05-07 17:45 30.06522 -96.05573 22798 ft 439 kts 288°
2026-05-07 17:46 30.07457 -96.08902 23423 ft 434 kts 278°
2026-05-07 17:46 30.08021 -96.12332 23974 ft 435 kts 276°
2026-05-07 17:46 30.08521 -96.15746 24430 ft 437 kts 275°
2026-05-07 17:46 30.09039 -96.19203 25006 ft 437 kts 276°
2026-05-07 17:47 30.09580 -96.22645 25673 ft 434 kts 276°
2026-05-07 17:47 30.10113 -96.26059 26348 ft 431 kts 276°
2026-05-07 17:47 30.10640 -96.29465 26999 ft 429 kts 275°
2026-05-07 17:47 30.11159 -96.32845 27660 ft 426 kts 275°
2026-05-07 17:48 30.11676 -96.36220 28320 ft 424 kts 275°
2026-05-07 17:48 30.12179 -96.39562 28996 ft 421 kts 275°
2026-05-07 17:48 30.12686 -96.42884 29663 ft 419 kts 275°
2026-05-07 17:48 30.13195 -96.46186 30260 ft 416 kts 275°
2026-05-07 17:49 30.13694 -96.49436 30768 ft 415 kts 275°
2026-05-07 17:49 30.14192 -96.52714 31287 ft 412 kts 275°
2026-05-07 17:49 30.14687 -96.55976 31842 ft 410 kts 275°
2026-05-07 17:49 30.15177 -96.59211 32363 ft 408 kts 274°
2026-05-07 17:50 30.15666 -96.62443 32893 ft 406 kts 274°
2026-05-07 17:50 30.16145 -96.65646 33425 ft 403 kts 274°
2026-05-07 17:50 30.16615 -96.68832 33912 ft 401 kts 274°
2026-05-07 17:50 30.17085 -96.72010 34401 ft 400 kts 274°
2026-05-07 17:51 30.17550 -96.75131 34833 ft 397 kts 274°
2026-05-07 17:51 30.18026 -96.78266 35265 ft 395 kts 274°
2026-05-07 17:51 30.18503 -96.81389 35699 ft 393 kts 274°
2026-05-07 17:51 30.18974 -96.84498 36132 ft 391 kts 274°
2026-05-07 17:52 30.19438 -96.87585 36521 ft 389 kts 274°
2026-05-07 17:52 30.19897 -96.90665 36891 ft 388 kts 273°
2026-05-07 17:52 30.20353 -96.93730 37257 ft 386 kts 273°
2026-05-07 17:52 30.20806 -96.96781 37601 ft 384 kts 273°
2026-05-07 17:53 30.21251 -96.99787 37974 ft 383 kts 273°
2026-05-07 17:53 30.21701 -97.02821 38183 ft 382 kts 273°
2026-05-07 17:53 30.22591 -97.08864 38192 ft 380 kts 273°
2026-05-07 17:54 30.23494 -97.14902 38124 ft 380 kts 273°
2026-05-07 17:54 30.24386 -97.20884 38121 ft 380 kts 273°
2026-05-07 17:55 30.25277 -97.26916 38121 ft 380 kts 273°
2026-05-07 17:55 30.26173 -97.32948 38125 ft 380 kts 273°
2026-05-07 17:56 30.27063 -97.38975 38120 ft 380 kts 273°
2026-05-07 17:56 30.27949 -97.45002 38120 ft 380 kts 273°
2026-05-07 17:57 30.28681 -97.50000 38125 ft 379 kts 273°
2026-05-07 17:57 30.29703 -97.57009 38133 ft 379 kts 273°
2026-05-07 17:58 30.30580 -97.63044 38132 ft 383 kts 273°
2026-05-07 17:58 30.31466 -97.69144 38136 ft 384 kts 273°
2026-05-07 17:59 30.32502 -97.75185 38139 ft 387 kts 276°
2026-05-07 17:59 30.33787 -97.81245 38159 ft 387 kts 277°
2026-05-07 18:00 30.35074 -97.87296 38169 ft 387 kts 277°
2026-05-07 18:00 30.36355 -97.93350 38175 ft 387 kts 277°
2026-05-07 18:01 30.37632 -97.99413 38175 ft 388 kts 277°
2026-05-07 18:01 30.38898 -98.05477 38178 ft 389 kts 276°
2026-05-07 18:02 30.40813 -98.14631 38172 ft 389 kts 277°
2026-05-07 18:03 30.42090 -98.20725 38148 ft 389 kts 277°
2026-05-07 18:03 30.43366 -98.26835 38143 ft 389 kts 277°
2026-05-07 18:04 30.44627 -98.32903 38140 ft 389 kts 276°
2026-05-07 18:04 30.45438 -98.39059 38142 ft 385 kts 271°
2026-05-07 18:05 30.46081 -98.45232 38157 ft 386 kts 271°
2026-05-07 18:05 30.46732 -98.51406 38157 ft 386 kts 271°
2026-05-07 18:06 30.47377 -98.57545 38156 ft 386 kts 271°
2026-05-07 18:06 30.48023 -98.63725 38155 ft 385 kts 271°
2026-05-07 18:07 30.48667 -98.69901 38154 ft 385 kts 271°
2026-05-07 18:07 30.49307 -98.76080 38155 ft 385 kts 270°
2026-05-07 18:08 30.49925 -98.82197 38148 ft 384 kts 270°
2026-05-07 18:08 30.50568 -98.88367 38147 ft 384 kts 270°
2026-05-07 18:09 30.51201 -98.94533 38139 ft 384 kts 270°
2026-05-07 18:09 30.51827 -99.00654 38138 ft 384 kts 270°
2026-05-07 18:10 30.52451 -99.06817 38142 ft 384 kts 270°
2026-05-07 18:10 30.53064 -99.12967 38132 ft 382 kts 270°
2026-05-07 18:11 30.53667 -99.19089 38130 ft 381 kts 270°
2026-05-07 18:11 30.54283 -99.25167 38125 ft 382 kts 270°
2026-05-07 18:12 30.54895 -99.31292 38125 ft 381 kts 270°
2026-05-07 18:12 30.55492 -99.37412 38123 ft 382 kts 270°
2026-05-07 18:13 30.56105 -99.43540 38131 ft 382 kts 270°
2026-05-07 18:13 30.56706 -99.49659 38145 ft 382 kts 270°
2026-05-07 18:14 30.57294 -99.55741 38150 ft 382 kts 270°
2026-05-07 18:14 30.57882 -99.61866 38158 ft 382 kts 270°
2026-05-07 18:15 30.58477 -99.67988 38166 ft 382 kts 270°
2026-05-07 18:15 30.59068 -99.74109 38186 ft 381 kts 270°
2026-05-07 18:16 30.59652 -99.80232 38175 ft 380 kts 270°
2026-05-07 18:16 30.60356 -99.86283 38171 ft 380 kts 271°
2026-05-07 18:17 30.61108 -99.92357 38157 ft 379 kts 271°
2026-05-07 18:17 30.61737 -99.97412 38147 ft 379 kts 271°
2026-05-07 18:18 30.62484 -100.03479 38132 ft 379 kts 271°
2026-05-07 18:18 30.63232 -100.09555 38120 ft 379 kts 271°
2026-05-07 18:19 30.63972 -100.15587 38113 ft 380 kts 271°
2026-05-07 18:19 30.64707 -100.21664 38120 ft 379 kts 271°
2026-05-07 18:20 30.65441 -100.27721 38111 ft 378 kts 271°
2026-05-07 18:20 30.66170 -100.33770 38133 ft 378 kts 271°
2026-05-07 18:21 30.66897 -100.39830 38157 ft 378 kts 271°
2026-05-07 18:21 30.67620 -100.45877 38171 ft 378 kts 271°
2026-05-07 18:22 30.68336 -100.51880 38187 ft 378 kts 271°
2026-05-07 18:22 30.69057 -100.57935 38195 ft 378 kts 271°
2026-05-07 18:23 30.69776 -100.63990 38199 ft 379 kts 271°
2026-05-07 18:23 30.70495 -100.70055 38195 ft 379 kts 271°
2026-05-07 18:24 30.71207 -100.76130 38181 ft 379 kts 271°
2026-05-07 18:24 30.71914 -100.82197 38167 ft 379 kts 271°
2026-05-07 18:25 30.72618 -100.88268 38150 ft 379 kts 271°
2026-05-07 18:25 30.73322 -100.94332 38154 ft 379 kts 271°
2026-05-07 18:26 30.74020 -101.00407 38177 ft 379 kts 271°
2026-05-07 18:26 30.74713 -101.06440 38199 ft 378 kts 271°
2026-05-07 18:27 30.75408 -101.12504 38213 ft 378 kts 271°
2026-05-07 18:27 30.76100 -101.18584 38242 ft 378 kts 270°
2026-05-07 18:28 30.76789 -101.24632 38217 ft 377 kts 270°
2026-05-07 18:28 30.77477 -101.30677 38109 ft 377 kts 270°
2026-05-07 18:29 30.78163 -101.36759 38109 ft 380 kts 270°
2026-05-07 18:29 30.78843 -101.42816 38107 ft 380 kts 270°
2026-05-07 18:30 30.79523 -101.48915 38106 ft 380 kts 270°
2026-05-07 18:30 30.80202 -101.55011 38108 ft 380 kts 270°
2026-05-07 18:31 30.80877 -101.61112 38112 ft 380 kts 270°
2026-05-07 18:31 30.81549 -101.67213 38110 ft 380 kts 270°
2026-05-07 18:32 30.82219 -101.73318 38111 ft 380 kts 270°
2026-05-07 18:32 30.82886 -101.79430 38108 ft 380 kts 270°
2026-05-07 18:33 30.83546 -101.85508 38107 ft 380 kts 270°
2026-05-07 18:33 30.84208 -101.91612 38100 ft 380 kts 270°
2026-05-07 18:34 30.84865 -101.97714 38103 ft 380 kts 270°
2026-05-07 18:34 30.85520 -102.03826 38105 ft 380 kts 270°
2026-05-07 18:35 30.86169 -102.09903 38102 ft 380 kts 269°
2026-05-07 18:35 30.86821 -102.16024 38098 ft 380 kts 269°
2026-05-07 18:36 30.87467 -102.22140 38090 ft 380 kts 269°
2026-05-07 18:36 30.88109 -102.28225 38088 ft 380 kts 269°
2026-05-07 18:37 30.88750 -102.34351 38080 ft 380 kts 269°
2026-05-07 18:37 30.89389 -102.40465 38081 ft 380 kts 269°
2026-05-07 18:38 30.90020 -102.46541 38082 ft 381 kts 269°
2026-05-07 18:38 30.90653 -102.52668 38083 ft 381 kts 269°
2026-05-07 18:39 30.91283 -102.58797 38112 ft 381 kts 269°
2026-05-07 18:39 30.91912 -102.64932 38122 ft 381 kts 269°
2026-05-07 18:40 30.92538 -102.71063 38142 ft 381 kts 269°
2026-05-07 18:40 30.93159 -102.77183 38155 ft 380 kts 269°
2026-05-07 18:41 30.93771 -102.83273 38062 ft 381 kts 269°
2026-05-07 18:41 30.94392 -102.89426 38059 ft 382 kts 269°
2026-05-07 18:42 30.95009 -102.95569 38057 ft 382 kts 269°
2026-05-07 18:42 30.96276 -103.01687 38055 ft 394 kts 278°
2026-05-07 18:43 30.97987 -103.07754 38058 ft 394 kts 278°
2026-05-07 18:43 30.99675 -103.13826 38060 ft 394 kts 278°
2026-05-07 18:44 31.01349 -103.19929 38056 ft 395 kts 278°
2026-05-07 18:44 31.03008 -103.25986 38052 ft 395 kts 278°
2026-05-07 18:45 31.04683 -103.32088 38062 ft 395 kts 278°
2026-05-07 18:45 31.06356 -103.38191 38069 ft 395 kts 278°
2026-05-07 18:46 31.08023 -103.44296 38085 ft 395 kts 278°
2026-05-07 18:46 31.09685 -103.50402 38126 ft 394 kts 277°
2026-05-07 18:47 31.11334 -103.56506 38103 ft 394 kts 277°
2026-05-07 18:47 31.12975 -103.62574 38097 ft 394 kts 277°
2026-05-07 18:48 31.14621 -103.68678 38097 ft 394 kts 277°
2026-05-07 18:48 31.16271 -103.74787 38089 ft 394 kts 277°
2026-05-07 18:49 31.17910 -103.80857 38078 ft 394 kts 277°
2026-05-07 18:49 31.19547 -103.86965 38066 ft 394 kts 277°
2026-05-07 18:50 31.21182 -103.93091 38071 ft 394 kts 277°
2026-05-07 18:50 31.22803 -103.99178 38067 ft 394 kts 277°
2026-05-07 18:51 31.24428 -104.05307 38069 ft 394 kts 277°
2026-05-07 18:51 31.26055 -104.11434 38065 ft 394 kts 277°
2026-05-07 18:52 31.27687 -104.17560 38063 ft 394 kts 277°
2026-05-07 18:52 31.29308 -104.23644 38092 ft 394 kts 277°
2026-05-07 18:53 31.30944 -104.29765 38058 ft 394 kts 277°
2026-05-07 18:53 31.32568 -104.35885 38067 ft 394 kts 277°
2026-05-07 18:54 31.34182 -104.42013 38052 ft 394 kts 277°
2026-05-07 18:54 31.35795 -104.48149 38054 ft 394 kts 277°
2026-05-07 18:55 31.37409 -104.54289 38041 ft 394 kts 277°
2026-05-07 18:55 31.39001 -104.60385 38047 ft 394 kts 276°
2026-05-07 18:56 31.40600 -104.66532 38036 ft 394 kts 277°
2026-05-07 18:56 31.42208 -104.72680 38030 ft 394 kts 276°
2026-05-07 18:57 31.43794 -104.78788 38028 ft 394 kts 276°
2026-05-07 18:57 31.45392 -104.84932 38027 ft 394 kts 276°
2026-05-07 18:58 31.46982 -104.91077 38051 ft 394 kts 277°
2026-05-07 18:58 31.48574 -104.97227 38031 ft 395 kts 276°
2026-05-07 18:59 31.50159 -105.03399 38021 ft 395 kts 276°
2026-05-07 18:59 31.51752 -105.09566 38008 ft 395 kts 276°
2026-05-07 19:00 31.53327 -105.15708 38006 ft 395 kts 276°
2026-05-07 19:00 31.54907 -105.21878 37996 ft 395 kts 276°
2026-05-07 19:01 31.56488 -105.28062 37994 ft 395 kts 276°
2026-05-07 19:01 31.58059 -105.34221 37998 ft 397 kts 276°
2026-05-07 19:02 31.59637 -105.40437 37984 ft 397 kts 276°
2026-05-07 19:02 31.61215 -105.46656 37983 ft 397 kts 276°
2026-05-07 19:03 31.62526 -105.51825 37978 ft 397 kts 276°
2026-05-07 19:03 31.64084 -105.58057 37977 ft 397 kts 276°
2026-05-07 19:04 31.65643 -105.64243 37997 ft 398 kts 276°
2026-05-07 19:04 31.67220 -105.70502 37981 ft 400 kts 276°
2026-05-07 19:05 31.68787 -105.76791 37977 ft 401 kts 276°
2026-05-07 19:05 31.70338 -105.83046 37961 ft 401 kts 276°
2026-05-07 19:06 31.71905 -105.89333 37957 ft 401 kts 276°
2026-05-07 19:06 31.74254 -105.98778 37964 ft 401 kts 276°
2026-05-07 19:07 31.75839 -106.05084 37999 ft 404 kts 277°
2026-05-07 19:07 31.77435 -106.11418 38021 ft 404 kts 276°
2026-05-07 19:08 31.79013 -106.17763 38054 ft 404 kts 276°
2026-05-07 19:08 31.80566 -106.24076 38083 ft 404 kts 276°
2026-05-07 19:09 31.81767 -106.30458 38099 ft 392 kts 267°
2026-05-07 19:09 31.82247 -106.36799 38127 ft 392 kts 266°
2026-05-07 19:10 31.82720 -106.43263 38111 ft 398 kts 267°
2026-05-07 19:10 31.83206 -106.49754 38108 ft 398 kts 267°
2026-05-07 19:11 31.83683 -106.56249 38101 ft 398 kts 267°
2026-05-07 19:11 31.84167 -106.62751 38127 ft 398 kts 267°
2026-05-07 19:12 31.84644 -106.69253 38131 ft 398 kts 267°
2026-05-07 19:12 31.85115 -106.75730 38132 ft 401 kts 267°
2026-05-07 19:13 31.85591 -106.82285 38120 ft 402 kts 267°
2026-05-07 19:13 31.86065 -106.88848 37937 ft 402 kts 267°
2026-05-07 19:14 31.86531 -106.95402 37926 ft 402 kts 267°
2026-05-07 19:14 31.86993 -107.01917 37914 ft 401 kts 267°
2026-05-07 19:15 31.87451 -107.08475 37932 ft 405 kts 267°
2026-05-07 19:15 31.87913 -107.15112 37927 ft 406 kts 267°
2026-05-07 19:16 31.88366 -107.21685 37913 ft 403 kts 267°
2026-05-07 19:16 31.88819 -107.28215 37928 ft 403 kts 267°
2026-05-07 19:17 31.89266 -107.34844 37928 ft 407 kts 267°
2026-05-07 19:17 31.89713 -107.41501 37933 ft 408 kts 267°
2026-05-07 19:18 31.90162 -107.48197 37913 ft 411 kts 267°
2026-05-07 19:18 31.90608 -107.54877 37916 ft 411 kts 267°
2026-05-07 19:19 31.91053 -107.61562 37935 ft 406 kts 267°
2026-05-07 19:19 31.91489 -107.68227 37931 ft 413 kts 267°
2026-05-07 19:20 31.91929 -107.74988 37948 ft 414 kts 268°
2026-05-07 19:20 31.92374 -107.81752 37920 ft 419 kts 268°
2026-05-07 19:21 31.92837 -107.88611 37917 ft 420 kts 268°
2026-05-07 19:21 31.93298 -107.95480 37914 ft 419 kts 268°
2026-05-07 19:22 31.93752 -108.02289 37913 ft 413 kts 268°
2026-05-07 19:22 31.94190 -108.09003 37915 ft 418 kts 268°
2026-05-07 19:23 31.94630 -108.15847 37918 ft 420 kts 268°
2026-05-07 19:23 31.95055 -108.22715 37917 ft 420 kts 268°
2026-05-07 19:24 31.95487 -108.29549 37910 ft 420 kts 268°
2026-05-07 19:24 31.95924 -108.36428 37912 ft 420 kts 268°
2026-05-07 19:25 31.96361 -108.43296 37932 ft 420 kts 268°
2026-05-07 19:25 31.96796 -108.50142 37911 ft 417 kts 268°
2026-05-07 19:26 31.97223 -108.57053 37914 ft 426 kts 268°
2026-05-07 19:26 31.97655 -108.63983 37908 ft 427 kts 268°
2026-05-07 19:27 31.98092 -108.70957 37916 ft 426 kts 268°
2026-05-07 19:27 31.98516 -108.77931 37934 ft 426 kts 268°
2026-05-07 19:28 31.98928 -108.84872 37906 ft 421 kts 268°
2026-05-07 19:28 31.99333 -108.91817 37910 ft 430 kts 268°
2026-05-07 19:29 31.99753 -108.98865 37911 ft 431 kts 268°
2026-05-07 19:29 32.00166 -109.05919 37909 ft 431 kts 268°
2026-05-07 19:30 32.00568 -109.12925 37927 ft 431 kts 268°
2026-05-07 19:30 32.00979 -109.20013 37907 ft 434 kts 268°
2026-05-07 19:31 32.01385 -109.27098 37905 ft 431 kts 268°
2026-05-07 19:31 32.01774 -109.34108 37907 ft 431 kts 268°
2026-05-07 19:32 32.02165 -109.41225 37914 ft 436 kts 268°
2026-05-07 19:32 32.02569 -109.48311 37930 ft 437 kts 269°
2026-05-07 19:33 32.02960 -109.55500 37914 ft 441 kts 269°
2026-05-07 19:33 32.03156 -109.59081 37423 ft 435 kts 268°
2026-05-07 19:33 32.03348 -109.62663 36775 ft 439 kts 268°
2026-05-07 19:34 32.03534 -109.66271 36444 ft 441 kts 268°
2026-05-07 19:34 32.03727 -109.69890 36111 ft 443 kts 269°
2026-05-07 19:34 32.03938 -109.73448 35465 ft 439 kts 270°
2026-05-07 19:34 32.04222 -109.77040 34518 ft 441 kts 270°
2026-05-07 19:35 32.04487 -109.80648 33616 ft 441 kts 270°
2026-05-07 19:35 32.04709 -109.84247 32645 ft 442 kts 270°
2026-05-07 19:35 32.04908 -109.87875 31711 ft 444 kts 269°
2026-05-07 19:35 32.05097 -109.91508 30773 ft 445 kts 269°
2026-05-07 19:36 32.05284 -109.95170 29704 ft 447 kts 270°
2026-05-07 19:36 32.05470 -109.98850 28467 ft 450 kts 270°
2026-05-07 19:36 32.05613 -110.02631 27573 ft 470 kts 269°
2026-05-07 19:36 32.05706 -110.06423 26448 ft 469 kts 270°
2026-05-07 19:37 32.05827 -110.10276 25281 ft 471 kts 271°
2026-05-07 19:37 32.05995 -110.14129 24440 ft 470 kts 272°
2026-05-07 19:37 32.06180 -110.18005 23605 ft 474 kts 273°
2026-05-07 19:37 32.06369 -110.21878 22610 ft 470 kts 272°
2026-05-07 19:38 32.06548 -110.25711 21920 ft 467 kts 272°
2026-05-07 19:38 32.06733 -110.29636 21469 ft 483 kts 272°
2026-05-07 19:38 32.06908 -110.33546 20785 ft 470 kts 272°
2026-05-07 19:38 32.07086 -110.37297 19982 ft 458 kts 272°
2026-05-07 19:39 32.07261 -110.40998 19184 ft 447 kts 271°
2026-05-07 19:39 32.07425 -110.44641 18393 ft 441 kts 271°
2026-05-07 19:39 32.07589 -110.48224 17470 ft 435 kts 271°
2026-05-07 19:39 32.07698 -110.50635 16892 ft 434 kts 271°
2026-05-07 19:40 32.07913 -110.55309 15901 ft 429 kts 272°
2026-05-07 19:40 32.08074 -110.58818 15196 ft 425 kts 272°
2026-05-07 19:40 32.08227 -110.62273 14563 ft 419 kts 272°
2026-05-07 19:40 32.08377 -110.65688 14077 ft 411 kts 272°
2026-05-07 19:41 32.08524 -110.69025 13541 ft 405 kts 272°
2026-05-07 19:41 32.08665 -110.72312 12893 ft 398 kts 272°
2026-05-07 19:41 32.08800 -110.75517 12334 ft 385 kts 272°
2026-05-07 19:41 32.08936 -110.78613 11965 ft 368 kts 272°
2026-05-07 19:42 32.09061 -110.81560 11634 ft 353 kts 273°
2026-05-07 19:42 32.09184 -110.84363 11305 ft 339 kts 273°
2026-05-07 19:42 32.09303 -110.87088 10995 ft 326 kts 273°
2026-05-07 19:42 32.09416 -110.89733 10557 ft 319 kts 273°
2026-05-07 19:43 32.09529 -110.92314 10201 ft 311 kts 275°
2026-05-07 19:43 32.10059 -110.94749 9742 ft 304 kts 297°
2026-05-07 19:43 32.11277 -110.96738 9239 ft 297 kts 316°
2026-05-07 19:43 32.12747 -110.98385 8768 ft 294 kts 319°
2026-05-07 19:44 32.14262 -110.99986 8286 ft 291 kts 320°
2026-05-07 19:44 32.15768 -111.01573 7792 ft 289 kts 320°
2026-05-07 19:44 32.17283 -111.03129 7322 ft 287 kts 321°
2026-05-07 19:44 32.18949 -111.04394 6858 ft 283 kts 332°
2026-05-07 19:45 32.20696 -111.05453 6402 ft 281 kts 334°
2026-05-07 19:45 32.22436 -111.06470 5946 ft 278 kts 334°
2026-05-07 19:45 32.24171 -111.07473 5488 ft 276 kts 334°
2026-05-07 19:45 32.25870 -111.08450 5042 ft 274 kts 334°
2026-05-07 19:46 32.27576 -111.09430 4580 ft 272 kts 334°
2026-05-07 19:46 32.29276 -111.10404 4155 ft 271 kts 334°
2026-05-07 19:46 32.30970 -111.11373 3960 ft 270 kts 334°
2026-05-07 19:46 32.32660 -111.12337 3936 ft 270 kts 334°
2026-05-07 19:47 32.34342 -111.13322 3934 ft 268 kts 330°
2026-05-07 19:47 32.35929 -111.14417 3955 ft 261 kts 332°
2026-05-07 19:47 32.37494 -111.15367 3953 ft 243 kts 334°
2026-05-07 19:47 32.38915 -111.16292 3901 ft 222 kts 325°
2026-05-07 19:48 32.39984 -111.17478 3736 ft 211 kts 308°
2026-05-07 19:48 32.40879 -111.18853 3741 ft 210 kts 309°
2026-05-07 19:48 32.41819 -111.20177 3799 ft 210 kts 311°
2026-05-07 19:48 32.42722 -111.21483 4045 ft 187 kts 306°
2026-05-07 19:49 32.43360 -111.22626 4158 ft 150 kts 304°
2026-05-07 19:49 32.43917 -111.23622 4179 ft 144 kts 304°
2026-05-07 19:49 32.44461 -111.24617 4106 ft 143 kts 303°
2026-05-07 19:49 32.45027 -111.25584 3950 ft 142 kts 310°
2026-05-07 19:50 32.45719 -111.26417 3755 ft 141 kts 316°
2026-05-07 19:50 32.46409 -111.27224 3418 ft 140 kts 316°
2026-05-07 19:50 32.47090 -111.28039 3069 ft 139 kts 315°
2026-05-07 19:50 32.47772 -111.28853 2795 ft 139 kts 316°
2026-05-07 19:51 32.48241 -111.29398 2635 ft 139 kts 316°
2026-05-07 19:51 32.48944 -111.30172 2392 ft 137 kts 318°
2026-05-07 19:51 32.49615 -111.30932 2207 ft 135 kts 317°
2026-05-07 19:51 32.50286 -111.31715 1981 ft 135 kts 315°
2026-05-07 19:52 32.50934 -111.32467 1891 ft 119 kts 316°
2026-05-07 19:52 32.51409 -111.33024 1895 ft 68 kts 317°
2026-05-07 19:52 32.51551 -111.33202 1891 ft 25 kts 315°
2026-05-07 19:52 32.51678 -111.33286 1885 ft 16 kts
2026-05-07 19:53 32.51730 -111.33269 1890 ft 4 kts 49°
2026-05-07 19:53 32.51738 -111.33216 1890 ft 9 kts 91°
2026-05-07 19:53 32.51696 -111.33141 1890 ft 13 kts 134°
2026-05-07 19:53 32.51658 -111.33094 1892 ft 8 kts 134°
2026-05-07 19:54 32.51606 -111.33032 1892 ft 13 kts 135°
2026-05-07 19:54 32.51532 -111.32946 1890 ft 17 kts 135°
2026-05-07 19:54 32.51438 -111.32836 1895 ft 21 kts 135°
2026-05-07 19:54 32.51328 -111.32705 1896 ft 22 kts 135°
2026-05-07 19:55 32.51292 -111.32663 1897 ft 2 kts 135°
2026-05-07 19:55 32.51273 -111.32640 1886 ft 6 kts 135°
2026-05-07 19:55 32.51231 -111.32591 1897 ft 11 kts 135°
2026-05-07 19:55 32.51168 -111.32517 1898 ft 15 kts 135°
2026-05-07 19:56 32.51086 -111.32417 1890 ft 19 kts 131°
2026-05-07 19:56 32.50990 -111.32291 1900 ft 22 kts 137°
2026-05-07 19:56 32.50925 -111.32219 1895 ft 10 kts 134°
2026-05-07 19:56 32.50867 -111.32148 1898 ft 14 kts 134°
2026-05-07 19:57 32.50790 -111.32055 1903 ft 18 kts 134°
2026-05-07 19:57 32.50766 -111.32024 1897 ft 1 kts 134°
2026-05-07 19:57 32.50751 -111.32008 1904 ft 5 kts 137°
2026-05-07 19:57 32.50733 -111.31955 1901 ft 10 kts 78°
2026-05-07 19:58 32.50772 -111.31875 1897 ft 4 kts 45°
2026-05-07 19:58 32.50772 -111.31874 1896 ft 0 kts 45°